Weather in Konstantinogradovka

Russia / Amur Oblast     50°27′27″N   128°17′23″E
temp.,
°C
wind,
m/s
gust,
m/s
humid.,
%
clouds,
%
prec.,
mm/h
press.,
hPa
HPBL,
m
4 july, mon
mon400:00+20wnw11912 0.3 100211
03:00+19se229222 0.3 100215
06:00+20e23905 0.0 100288
09:00+25sse33744 0.0 1003536
12:00+28sse33615 0.0 10031130
15:00+29sse22553 0.0 10031481
18:00+29se22651 0.0 10021075
21:00+23se228062 0.0 100312
5 july, tue
tue500:00+21se338852 0.0 100342
03:00+20se3694100 0.0 1004103
06:00+21sse378951 0.2 1005207
09:00+25se457625 0.6 1005478
12:00+28sse446487 0.0 10041000
15:00+29se4462100 0.0 10031171
18:00+29sse3472100 0.0 1003858
21:00+24se4789100 0.9 1004114
6 july, wed
wed600:00+22se389298 0.1 1005175
03:00+21se359520 0.6 100599
06:00+22se379523 0.0 1006212
09:00+26sse45786 0.0 1006557
12:00+29sse55671 0.1 10051041
15:00+30sse56639 0.3 10041442
18:00+29se58710 0.0 1002839
21:00+24se615850 0.6 1002368
7 july, thu
thu700:00+23se6139028 0.1 1002342
03:00+22se7149496 0.6 1001396
06:00+22se71492100 0.0 1000481
09:00+22sse71294100 0.7 999620
12:00+21sw81294100 7.4 999673
15:00+18s61295100 11.0 999409
18:00+21sse5789100 0.1 999470
21:00+18sse510950 0.1 1000238
8 july, fri
fri800:00+17sse48960 0.0 999163
03:00+17sse47960 0.0 999127
06:00+18sse510915 0.0 999232
09:00+23sse697496 0.0 998473
12:00+26sse8106863 0.0 998897
15:00+27s5771100 0.8 9961155
18:00+24s4885100 2.6 996296
21:00+18se249574 15.9 99699